Location: Foulognes
(49.1413°N, 0.8183°W)
Time: 19:53:44
(UTC+00:00)

COSMO-SKYMED 1 - Pass Details

Date: 21 October 2019
Orbit: 621 x 623 km, 97.9° (Epoch: 22 November)

Event Time Altitude Azimuth Distance (km) Brightness Sun altitude
Rises 18:25:23 0° 12° (NNE) 2,917 5.9 -14.3°
Reaches altitude 10° 18:27:35 10° 11° (NNE) 2,005 5.1 -14.6°
Maximum altitude 18:31:57 79° 287° (WNW) 640 2.7 -15.3°
Drops below altitude 10° 18:36:16 10° 200° (SSW) 1,988 5.4 -16.0°
Sets 18:38:27 0° 199° (SSW) 2,889 6.2 -16.4°
